RH
88 86 88 90 90 92 95 95 95 96 96 95 95 96 97 97 95 94 94 91 94 96 97 95 98 97 99 98 98 98 98 97 98 100 98 98 98 98 99 98 95 95 95
86 85 89 91 91 91 95 96 94 97 96 96 96 97 95 93 94 90 93 91 89 93 98 96 98 96 97 97 98 98 97 95 97 99 99 99 98 98 98 99 98 94 92
82 87 92 92 91 92 95 96 95 95 97 97 96 95 95 93 93 92 92 93 94 92 95 95 95 95 98 97 98 98 98 98 97 97 99 98 98 99 99 99 99 96 83
82 89 91 91 91 91 94 94 94 94 96 97 96 96 92 90 86 83 89 93 95 96 96 95 94 93 94 94 98 98 98 98 98 98 98 99 99 100 99 97 95 94 81
80 88 87 88 90 91 93 93 93 94 94 95 95 95 94 90 91 88 89 95 96 98 98 97 95 95 97 97 98 98 97 98 98 99 99 99 100 99 96 94 86 85 86
82 83 83 85 86 91 92 93 93 95 96 96 96 95 98 98 100 100 95 96 95 97 98 98 98 98 99 100 100 100 99 97 99 98 99 98 96 90 89 89 84 85 83
80 79 80 84 84 90 91 91 92 92 94 97 98 97 99 99 100 100 100 96 97 98 98 98 98 98 97 97 100 100 99 100 98 96 93 87 87 85 88 90 87 81 85
75 77 77 82 80 90 90 90 91 92 95 97 97 98 99 99 100 100 100 96 98 98 98 97 98 98 97 96 96 91 85 86 86 77 87 87 84 84 83 81 85 91 80
68 76 73 78 81 88 88 89 90 92 94 93 94 97 98 99 100 100 99 97 98 99 98 96 95 97 100 100 85 85 85 84 91 96 96 97 96 95 90 81 86 81 82
64 69 70 76 79 86 89 89 89 89 89 88 93 94 100 98 100 100 98 91 97 96 95 98 100 95 100 96 83 84 84 82 78 74 76 81 90 93 91 85 82 78 66
60 66 71 80 82 86 90 89 91 91 89 90 89 90 94 98 98 100 100 92 92 95 91 94 94 100 100 98 92 85 84 80 80 71 71 75 74 74 69 74 75 63 65
61 62 70 84 73 82 88 90 90 91 91 92 90 87 80 86 99 100 100 98 98 90 89 88 89 94 96 97 91 88 83 79 70 74 74 72 75 74 73 72 77 74 71
63 68 72 80 81 85 87 90 89 91 87 88 82 81 80 72 79 96 94 96 95 86 84 89 89 90 94 95 96 89 86 71 74 74 75 74 76 70 74 72 74 72 73
65 70 72 75 86 87 85 83 83 88 89 83 82 82 81 78 70 73 79 82 88 83 85 75 78 83 90 85 78 76 67 72 70 72 75 77 70 65 63 58 59 54 50
62 66 69 68 77 86 83 86 81 83 76 79 81 78 82 82 73 73 80 78 77 79 78 66 63 62 64 63 63 67 71 76 70 73 74 68 62 61 62 62 58 62 48
60 63 64 66 72 78 83 88 92 98 97 93 93 81 76 83 87 82 79 84 92 78 63 63 65 61 57 57 56 60 72 82 70 69 67 62 60 59 62 62 59 52 50
55 59 61 65 67 75 79 79 83 87 100 98 99 95 89 82 94 90 83 89 88 73 60 57 61 62 58 54 52 52 62 75 73 66 63 63 62 60 62 61 59 53 56
54 66 57 60 61 65 71 74 68 74 80 85 96 93 98 93 94 95 89 83 71 67 60 56 53 54 56 55 51 52 63 79 73 72 66 63 64 62 62 61 62 57 60
49 51 51 55 60 67 68 69 71 71 70 73 84 88 89 94 92 95 86 65 61 60 59 58 53 51 49 50 55 59 66 73 74 71 70 69 66 59 60 60 63 73 77
48 60 57 54 60 67 68 68 72 73 75 72 74 69 81 79 79 81 81 74 66 60 56 54 58 54 50 47 52 60 69 82 78 71 68 66 65 61 60 63 67 68 67
45 57 63 53 58 59 65 66 70 67 69 70 68 69 86 69 69 70 72 74 68 61 58 54 52 57 59 58 55 60 65 72 73 69 68 65 64 62 63 67 69 70 72
47 54 53 50 53 57 60 64 66 65 65 65 64 72 91 66 62 65 67 66 66 64 57 58 56 58 60 64 65 66 64 70 73 70 68 67 68 66 64 69 74 81 82
50 56 53 52 55 70 68 63 62 64 63 62 60 66 74 67 62 62 63 63 66 67 64 57 54 55 59 67 69 66 66 70 70 69 69 69 67 76 83 88 86 92 91
51 56 55 53 56 60 60 62 63 75 60 62 66 64 66 67 69 62 61 61 62 63 63 61 54 52 59 66 72 68 70 72 72 73 72 77 84 87 89 90 91 91 93
54 60 59 62 58 62 61 62 68 62 63 62 64 64 64 69 68 68 70 67 65 63 65 63 59 56 59 67 70 72 83 90 76 79 78 80 83 85 88 92 95 95 91
55 62 61 62 64 64 64 64 65 73 70 64 63 64 63 64 64 72 73 78 71 66 63 65 64 66 67 70 73 88 90 90 89 84 82 85 86 89 92 93 93 92 86
Wind_Speed
5 3 2 3 2 3 2 2 3 2 3 4 5 5 6 7 7 7 5 5 6 7 6 7 7 6 5 5 5 5 6 5 8 4 9 11 12 11 8 7 7 5 4
5 3 4 3 2 4 3 4 3 3 4 5 5 6 7 8 6 7 6 5 6 7 8 8 7 5 6 5 5 7 6 6 9 9 11 10 11 10 8 8 5 4 3
5 5 4 3 3 3 3 4 4 3 5 5 7 8 8 6 7 6 7 7 7 7 8 8 9 9 7 6 6 7 6 6 6 9 6 8 7 7 5 4 3 3 2
5 5 5 4 3 3 3 4 4 4 5 5 7 9 10 7 8 9 6 7 7 6 7 7 7 8 9 10 7 8 8 8 8 8 9 9 4 4 4 3 3 2 2
6 5 5 4 4 3 4 4 4 4 5 5 8 8 9 9 5 8 7 6 7 7 7 7 7 7 10 8 7 8 9 7 7 7 5 6 3 5 6 3 3 2 2
6 6 5 5 5 4 3 5 4 5 4 5 6 8 8 5 11 10 8 7 7 7 7 7 9 13 12 14 14 14 8 9 8 5 3 6 4 4 3 4 4 3 3
6 6 6 5 5 4 4 5 4 4 4 5 5 6 6 7 12 12 10 6 7 6 7 7 7 7 11 11 11 10 9 9 5 4 8 6 5 7 6 3 3 2 3
6 6 6 5 6 5 4 4 4 3 4 3 4 5 5 4 10 11 11 8 7 8 7 9 9 10 8 9 6 5 5 4 3 2 4 6 4 7 6 4 5 7 4
8 7 6 6 7 7 6 5 2 4 3 3 3 5 7 5 8 11 9 7 8 7 8 9 9 8 9 9 5 6 6 5 8 9 9 7 9 11 8 7 5 6 3
9 9 7 7 8 7 6 6 3 2 4 4 5 4 6 7 6 10 8 6 8 6 6 6 9 8 8 7 5 6 6 4 7 6 6 8 7 7 6 3 6 5 4
9 8 7 7 7 7 6 4 5 5 5 5 6 3 4 5 5 8 9 6 6 6 6 5 3 9 8 6 6 4 3 8 7 7 6 5 6 6 5 6 4 5 4
11 10 9 7 6 6 7 4 5 6 6 5 5 4 3 2 4 5 9 8 8 6 6 4 4 7 7 8 5 8 11 9 6 6 6 6 6 6 7 8 10 10 9
11 10 10 9 7 7 8 7 4 4 5 4 4 4 3 2 2 4 5 10 7 5 4 5 9 7 7 6 3 9 10 6 6 6 6 4 5 7 10 10 10 12 13
11 10 9 10 7 6 4 6 6 5 4 5 4 4 3 2 3 2 3 4 7 6 8 6 5 6 3 6 6 5 5 6 6 7 6 7 8 8 7 6 8 7 8
11 9 9 8 10 8 6 6 7 6 8 7 5 6 6 4 5 6 7 5 4 6 7 3 2 2 3 3 3 4 4 5 6 5 8 9 8 8 7 6 7 4 5
12 9 9 8 7 8 8 4 7 3 10 9 12 9 5 4 10 12 10 7 12 14 3 3 4 4 5 6 6 6 5 6 6 8 8 9 9 9 8 6 4 7 9
15 12 8 9 9 9 8 8 8 1 4 9 9 10 12 12 12 13 11 9 12 8 3 4 5 6 6 6 6 6 5 5 6 7 8 8 8 8 9 7 7 8 7
13 15 11 10 9 9 9 9 8 8 8 5 7 8 9 7 10 10 15 12 4 4 3 5 7 7 6 7 6 6 5 6 6 6 6 7 8 9 9 9 8 9 9
13 11 11 10 9 9 9 8 8 8 8 6 3 2 4 7 5 10 16 6 8 8 8 7 6 7 7 7 7 7 7 8 7 8 8 9 8 9 9 9 8 9 9
13 15 13 10 9 9 8 9 8 8 8 8 7 9 7 6 6 7 8 8 7 8 8 9 7 7 7 8 8 8 7 7 7 8 9 9 10 10 10 10 8 9 6
12 11 12 10 10 11 10 10 9 9 9 9 10 9 12 11 11 9 9 9 9 9 8 8 8 8 8 8 8 8 8 8 9 9 9 9 8 8 7 8 6 6 4
12 12 12 12 10 11 11 10 10 10 10 10 9 7 13 11 9 9 9 10 10 9 8 9 9 9 10 10 10 10 10 10 9 9 9 9 8 9 10 8 8 6 7
11 12 12 11 11 10 8 10 10 11 11 10 9 7 8 10 10 10 10 10 10 10 9 9 10 9 8 9 10 11 12 13 13 12 14 13 12 11 9 10 10 8 5
12 13 14 12 10 10 11 11 11 11 11 10 10 10 9 9 10 12 11 9 9 10 10 9 10 12 10 10 9 11 11 11 10 12 14 13 11 13 12 12 8 10 8
10 11 11 12 12 12 11 11 11 11 11 10 10 10 9 10 10 10 9 9 9 9 11 11 10 14 16 18 16 16 11 13 15 15 13 16 17 20 15 12 11 7 7
9 11 9 8 9 10 10 11 11 10 10 10 10 10 10 10 10 9 8 8 9 10 11 9 11 15 14 13 14 13 15 15 18 19 15 15 16 13 13 14 15 9 10
Wind_Direction
162 187 174 95 62 67 68 63 51 59 136 147 137 121 110 112 122 124 128 128 113 115 114 121 106 119 116 111 104 112 132 124 120 109 121 126 123 119 110 107 119 124 141
171 167 132 113 87 65 63 57 58 68 124 129 127 119 123 122 124 133 124 132 130 126 115 114 115 113 107 105 100 102 110 123 126 126 129 133 127 120 116 120 124 122 139
160 150 127 133 117 76 78 68 56 93 104 105 109 117 113 111 115 124 124 120 115 119 126 138 139 131 126 123 108 105 109 108 113 123 119 128 118 122 113 92 99 107 149
154 144 139 170 134 121 99 93 74 101 107 112 116 117 122 121 125 132 111 105 99 101 107 116 122 125 142 138 121 116 113 116 115 110 120 119 116 100 101 119 122 128 132
155 148 163 154 131 123 96 89 86 99 105 108 117 114 118 124 119 123 113 104 105 99 97 105 106 110 99 104 116 123 118 115 120 124 101 113 108 142 156 155 113 118 80
162 158 155 136 134 128 106 97 90 88 96 110 115 123 119 114 122 115 117 114 109 109 104 101 111 103 93 93 87 82 88 111 112 117 112 135 133 135 128 151 127 122 134
165 155 156 147 135 140 126 94 88 89 110 105 113 112 121 122 128 125 118 117 118 118 120 120 104 104 107 105 87 84 87 91 102 119 143 145 141 169 153 128 127 128 117
169 157 154 148 135 128 115 105 102 85 101 114 113 115 111 125 134 135 124 120 120 120 126 124 124 123 121 118 109 94 82 108 106 112 149 152 157 155 144 147 139 111 104
172 166 163 153 145 142 135 127 91 104 95 102 107 118 109 107 131 131 118 118 110 105 98 118 127 129 131 120 107 98 102 81 54 69 90 105 128 139 140 126 125 125 93
177 177 163 158 152 154 150 140 117 98 102 110 98 88 112 123 134 127 121 124 119 114 102 100 108 132 139 125 116 140 121 132 124 98 77 61 69 79 69 68 148 135 133
167 157 154 159 158 155 144 136 130 113 101 93 96 74 101 125 147 142 128 135 136 132 134 136 150 153 157 154 142 155 142 128 109 109 102 90 80 84 77 72 74 127 125
157 160 161 156 158 147 143 121 125 126 116 114 111 90 62 77 115 159 136 126 140 140 150 143 137 159 171 165 154 121 116 112 123 117 112 110 109 96 78 78 76 76 64
159 164 163 155 154 154 148 141 128 135 136 142 137 126 122 85 78 113 132 136 127 120 137 137 136 153 154 143 158 141 138 133 133 132 137 131 120 117 110 97 89 85 71
167 166 157 160 150 152 149 157 149 155 151 153 155 154 151 147 145 136 125 121 101 87 98 88 93 103 95 115 109 155 156 156 156 155 149 124 131 140 134 130 113 102 85
168 164 165 165 165 163 170 172 176 187 175 172 184 169 163 182 205 176 163 165 156 129 114 103 115 122 141 148 127 151 156 158 154 143 149 148 149 144 141 137 126 102 112
164 167 172 164 170 168 165 147 47 186 195 195 165 167 203 197 168 177 184 145 135 146 107 157 181 188 184 175 171 171 178 173 162 154 153 158 160 161 152 149 132 137 134
169 171 168 169 172 170 174 177 181 59 171 197 199 196 180 184 178 184 176 141 158 156 172 182 195 193 195 192 191 188 181 187 160 167 165 164 161 155 153 156 144 137 128
170 164 168 177 180 178 182 188 189 186 192 192 217 203 217 209 193 177 136 118 133 236 202 196 204 197 199 199 196 193 179 167 173 164 163 163 162 157 162 162 154 146 145
167 171 173 174 180 179 179 182 189 191 196 190 145 188 202 181 165 148 166 186 187 198 207 216 207 197 198 197 198 194 186 186 179 173 170 162 167 169 167 159 152 149 140
178 170 170 171 170 174 179 185 187 193 193 195 195 207 152 138 186 188 196 205 204 206 202 210 209 200 195 194 193 192 186 172 176 185 182 178 169 168 167 162 162 162 156
174 167 169 170 177 182 183 190 193 195 201 202 211 196 180 189 202 200 199 203 210 210 208 209 205 202 200 198 193 190 191 189 187 185 180 180 170 166 164 151 138 124 139
172 169 173 183 181 184 190 188 190 196 203 207 215 199 178 204 207 206 207 208 208 210 206 206 211 208 203 196 190 190 193 188 181 179 178 170 167 157 146 139 121 122 133
169 170 179 185 189 182 178 191 194 198 203 206 207 196 184 204 213 212 209 205 203 206 204 203 211 211 205 202 199 194 188 193 194 180 170 166 157 140 135 133 132 131 144
172 175 181 184 184 184 189 194 199 203 205 204 198 197 195 206 212 216 214 208 204 205 202 202 208 210 205 204 198 194 190 177 182 180 166 154 144 135 134 133 142 151 137
184 176 182 183 184 190 190 195 198 198 198 204 212 208 202 196 205 216 216 207 205 204 207 205 208 211 207 199 195 190 174 150 156 153 153 147 148 146 141 135 143 147 115
183 175 182 184 184 189 189 192 198 198 201 205 210 212 208 209 207 205 216 210 206 211 212 208 212 209 201 196 187 159 148 147 145 147 144 140 142 139 135 141 148 139 150